When you browse on this site, cookies collect data to enhance your experience and personalize the content and advertising you see.
Visit our Privacy Policy to learn more. By continuing to use the site, you agree to this use of cookies and data.
  • en France
  • Liste des pays
  • À 7 jours
  • Température de l'eau
  • Carte météo
  • Widgets météo
  • user-avatar
    Se connecter

    Météo par heure à Fleet

    Ce jour, 31 Mai, Dimanche

    Heure Température Précipitation Vent Pression Humidité
    00:00 +11°C° 0 mm 4 m/s 759 mmHg 78%
    01:00 +11°C° 0 mm 4 m/s 758 mmHg 82%
    02:00 +11°C° 0 mm 4 m/s 758 mmHg 85%
    03:00 +10°C° 0 mm 3 m/s 758 mmHg 89%
    04:00 +11°C° 0 mm 3 m/s 758 mmHg 85%
    05:00 +13°C° 0 mm 4 m/s 758 mmHg 82%
    06:00 +13°C° 0 mm 3 m/s 759 mmHg 81%
    07:00 +15°C° 0 mm 4 m/s 759 mmHg 72%
    08:00 +18°C° 0 mm 4 m/s 759 mmHg 64%
    09:00 +20°C° 0 mm 5 m/s 759 mmHg 56%
    10:00 +21°C° 0 mm 5 m/s 759 mmHg 53%
    11:00 +22°C° 0 mm 6 m/s 759 mmHg 50%
    12:00 +22°C° 0 mm 6 m/s 759 mmHg 48%
    13:00 +22°C° 0 mm 6 m/s 759 mmHg 48%
    14:00 +22°C° 0 mm 6 m/s 759 mmHg 48%
    15:00 +22°C° 0 mm 6 m/s 759 mmHg 48%
    16:00 +20°C° 0 mm 6 m/s 759 mmHg 52%
    17:00 +19°C° 0 mm 5 m/s 759 mmHg 56%
    18:00 +17°C° 0 mm 5 m/s 759 mmHg 60%
    19:00 +16°C° 0 mm 5 m/s 759 mmHg 63%
    20:00 +14°C° 0 mm 4 m/s 759 mmHg 66%
    21:00 +12°C° 0 mm 4 m/s 759 mmHg 70%
    22:00 +11°C° 0 mm 4 m/s 759 mmHg 75%
    23:00 +11°C° 0 mm 4 m/s 760 mmHg 80%

    Demain, 1 Juin, Lundi

    Heure Température Précipitation Vent Pression Humidité
    00:00 +10°C° 0 mm 4 m/s 760 mmHg 85%
    01:00 +10°C° 0 mm 4 m/s 760 mmHg 88%
    02:00 +10°C° 0 mm 3 m/s 759 mmHg 91%
    03:00 +9°C° 0 mm 3 m/s 759 mmHg 93%
    04:00 +10°C° 0 mm 4 m/s 759 mmHg 91%
    05:00 +11°C° 0 mm 4 m/s 759 mmHg 88%
    06:00 +12°C° 0 mm 4 m/s 759 mmHg 85%
    07:00 +14°C° 0 mm 5 m/s 759 mmHg 79%
    08:00 +16°C° 0 mm 5 m/s 760 mmHg 72%
    09:00 +19°C° 0 mm 5 m/s 760 mmHg 65%
    10:00 +20°C° 0 mm 5 m/s 760 mmHg 62%
    11:00 +21°C° 0 mm 5 m/s 759 mmHg 59%
    12:00 +22°C° 0 mm 5 m/s 759 mmHg 56%
    13:00 +22°C° 0 mm 5 m/s 759 mmHg 56%
    14:00 +22°C° 0 mm 5 m/s 759 mmHg 56%
    15:00 +22°C° 0 mm 5 m/s 759 mmHg 55%
    16:00 +22°C° 0 mm 5 m/s 759 mmHg 59%
    17:00 +21°C° 0 mm 4 m/s 759 mmHg 62%
    18:00 +20°C° 0 mm 4 m/s 759 mmHg 65%
    19:00 +18°C° 0 mm 4 m/s 759 mmHg 71%
    20:00 +16°C° 0 mm 3 m/s 759 mmHg 77%
    21:00 +13°C° 0 mm 3 m/s 759 mmHg 82%
    22:00 +12°C° 0 mm 3 m/s 759 mmHg 83%
    23:00 +11°C° 0 mm 3 m/s 759 mmHg 85%

    Après-demain, 2 Juin, Mardi

    Heure Température Précipitation Vent Pression Humidité
    00:00 +10°C° 0 mm 3 m/s 759 mmHg 86%
    01:00 +9°C° 0 mm 3 m/s 759 mmHg 88%
    02:00 +9°C° 0 mm 3 m/s 759 mmHg 90%
    03:00 +8°C° 0 mm 3 m/s 758 mmHg 92%
    04:00 +9°C° 0 mm 3 m/s 758 mmHg 91%
    05:00 +10°C° 0 mm 3 m/s 758 mmHg 90%
    06:00 +10°C° 0 mm 4 m/s 758 mmHg 88%
    07:00 +13°C° 0 mm 3 m/s 758 mmHg 82%
    08:00 +16°C° 0 mm 3 m/s 758 mmHg 76%
    09:00 +18°C° 0 mm 3 m/s 758 mmHg 70%
    10:00 +20°C° 0 mm 3 m/s 758 mmHg 65%
    11:00 +21°C° 0 mm 3 m/s 757 mmHg 61%
    12:00 +23°C° 0 mm 2 m/s 757 mmHg 56%
    13:00 +23°C° 0 mm 2 m/s 756 mmHg 55%
    14:00 +24°C° 0 mm 2 m/s 756 mmHg 54%
    15:00 +24°C° 0 mm 2 m/s 755 mmHg 54%
    16:00 +23°C° 0 mm 2 m/s 755 mmHg 59%
    17:00 +21°C° 0 mm 3 m/s 755 mmHg 64%
    18:00 +21°C° 0 mm 3 m/s 754 mmHg 69%
    19:00 +19°C° 0 mm 3 m/s 754 mmHg 76%
    20:00 +17°C° 0 mm 3 m/s 754 mmHg 82%
    21:00 +15°C° 0 mm 2 m/s 754 mmHg 89%
    22:00 +15°C° 0 mm 2 m/s 753 mmHg 91%
    23:00 +14°C° 0 mm 2 m/s 753 mmHg 92%

    3 Juin, Mercredi

    Heure Température Précipitation Vent Pression Humidité
    00:00 +13°C° 0 mm 2 m/s 752 mmHg 93%
    01:00 +13°C° 0 mm 2 m/s 752 mmHg 94%
    02:00 +13°C° 0 mm 2 m/s 752 mmHg 94%
    03:00 +12°C° 0 mm 1 m/s 751 mmHg 94%
    04:00 +13°C° 0 mm 2 m/s 751 mmHg 92%
    05:00 +13°C° 0 mm 2 m/s 750 mmHg 90%
    06:00 +14°C° 0 mm 2 m/s 750 mmHg 89%
    07:00 +14°C° 0 mm 3 m/s 750 mmHg 81%
    08:00 +15°C° 0 mm 4 m/s 750 mmHg 73%
    09:00 +17°C° 0 mm 4 m/s 750 mmHg 66%
    10:00 +18°C° 0 mm 4 m/s 750 mmHg 63%
    11:00 +19°C° 0 mm 4 m/s 750 mmHg 60%
    12:00 +20°C° 0 mm 4 m/s 749 mmHg 57%
    13:00 +20°C° 0 mm 4 m/s 749 mmHg 58%
    14:00 +20°C° 0 mm 5 m/s 749 mmHg 58%
    15:00 +21°C° 0 mm 5 m/s 748 mmHg 58%
    16:00 +19°C° 0.2 mm 5 m/s 748 mmHg 65%
    17:00 +17°C° 0.2 mm 6 m/s 748 mmHg 71%
    18:00 +16°C° 0.2 mm 6 m/s 748 mmHg 78%
    19:00 +15°C° 0.1 mm 6 m/s 748 mmHg 80%
    20:00 +13°C° 0.1 mm 5 m/s 749 mmHg 82%
    21:00 +12°C° 0.1 mm 4 m/s 749 mmHg 84%
    22:00 +11°C° 0 mm 4 m/s 749 mmHg 87%
    23:00 +10°C° 0 mm 4 m/s 749 mmHg 91%

    4 Juin, Jeudi

    Heure Température Précipitation Vent Pression Humidité
    00:00 +10°C° 0 mm 4 m/s 749 mmHg 94%
    01:00 +10°C° 0 mm 4 m/s 749 mmHg 91%
    02:00 +10°C° 0 mm 4 m/s 749 mmHg 88%
    03:00 +9°C° 0 mm 5 m/s 749 mmHg 85%
    04:00 +11°C° 0 mm 4 m/s 749 mmHg 84%
    05:00 +11°C° 0 mm 4 m/s 749 mmHg 83%
    06:00 +11°C° 0 mm 4 m/s 749 mmHg 82%
    07:00 +12°C° 0 mm 4 m/s 749 mmHg 77%
    08:00 +13°C° 0 mm 4 m/s 749 mmHg 71%
    09:00 +14°C° 0 mm 4 m/s 749 mmHg 65%
    10:00 +15°C° 0 mm 4 m/s 750 mmHg 63%
    11:00 +15°C° 0 mm 4 m/s 750 mmHg 62%
    12:00 +17°C° 0 mm 3 m/s 750 mmHg 60%
    13:00 +17°C° 0 mm 3 m/s 750 mmHg 60%
    14:00 +17°C° 0 mm 3 m/s 749 mmHg 59%
    15:00 +18°C° 0 mm 2 m/s 749 mmHg 58%
    16:00 +17°C° 0 mm 2 m/s 749 mmHg 62%
    17:00 +17°C° 0 mm 2 m/s 749 mmHg 65%
    18:00 +18°C° 0 mm 1 m/s 749 mmHg 69%
    19:00 +15°C° 0 mm 1 m/s 749 mmHg 73%
    20:00 +14°C° 0 mm 1 m/s 749 mmHg 77%
    21:00 +12°C° 0 mm 0 m/s 749 mmHg 81%
    22:00 +12°C° 0 mm 1 m/s 749 mmHg 83%
    23:00 +11°C° 0 mm 1 m/s 749 mmHg 85%

    5 Juin, Vendredi

    Heure Température Précipitation Vent Pression Humidité
    00:00 +11°C° 0 mm 1 m/s 749 mmHg 87%
    01:00 +11°C° 0 mm 1 m/s 749 mmHg 89%
    02:00 +10°C° 0 mm 1 m/s 749 mmHg 90%
    03:00 +10°C° 0 mm 1 m/s 748 mmHg 91%
    04:00 +9°C° 0 mm 2 m/s 748 mmHg 89%
    05:00 +10°C° 0 mm 2 m/s 748 mmHg 87%
    06:00 +12°C° 0 mm 2 m/s 748 mmHg 85%
    07:00 +13°C° 0 mm 3 m/s 748 mmHg 76%
    08:00 +14°C° 0 mm 3 m/s 748 mmHg 67%
    09:00 +17°C° 0 mm 4 m/s 748 mmHg 58%
    10:00 +18°C° 0 mm 4 m/s 748 mmHg 57%
    11:00 +19°C° 0 mm 4 m/s 747 mmHg 56%
    12:00 +20°C° 0 mm 4 m/s 747 mmHg 55%
    13:00 +20°C° 0 mm 4 m/s 747 mmHg 58%
    14:00 +19°C° 0 mm 4 m/s 747 mmHg 61%
    15:00 +19°C° 0 mm 4 m/s 746 mmHg 65%
    16:00 +18°C° 0 mm 4 m/s 746 mmHg 69%
    17:00 +18°C° 0 mm 4 m/s 746 mmHg 73%
    18:00 +17°C° 0 mm 4 m/s 746 mmHg 77%
    19:00 +16°C° 0 mm 3 m/s 747 mmHg 79%
    20:00 +14°C° 0 mm 3 m/s 747 mmHg 81%
    21:00 +13°C° 0 mm 3 m/s 747 mmHg 83%
    22:00 +12°C° 0 mm 3 m/s 747 mmHg 79%
    23:00 +12°C° 0 mm 3 m/s 747 mmHg 75%
    Voir plus